Regional Weather Roundup
Issued by NWS

Home | Current Version | Previous Version | Text Only | Print | Product List | Glossary Off
Versions: 1 2 3 4 5 6 7 8 9 10 11 12 13 14 15 16 17 18 19 20 21 22 23 24 25 26 27 28 29 30 31 32 33 34 35 36 37 38 39 40 41 42 43 44 45 46 47 48 49

000
ASUS43 KDMX 251107
RWRIA

WEATHER ROUNDUP FOR IOWA
NATIONAL WEATHER SERVICE DES MOINES IA
600 AM CDT FRI JUL 25 2014

NOTE: "FAIR" INDICATES FEW OR NO CLOUDS BELOW 12,000 FEET WITH NO
SIGNIFICANT WEATHER AND/OR OBSTRUCTIONS TO VISIBILITY.

* - THESE STATIONS ARE NOT NWS STATIONS...THUS NOT UNDER NWS
QUALITY CONTROL.  THEY ALSO DO NOT REPORT WEATHER SUCH
AS PRECIPITATION OR FOG.

IAZ001>003-012>014-020>022-031>034-043>046-251200-
   NORTHWEST IOWA

CITY           SKY/WX    TMP DP  RH WIND       PRES   REMARKS
CARROLL *      PTCLDY    64  61  88 SE18G29   29.90R
CHEROKEE *     PTCLDY    66  63  88 E7        29.87R
DENISON *      CLEAR     66  61  82 E16G23    29.82S
LE MARS *      MOCLDY    66  61  82 E14G25    29.82S
ORANGE CITY *  CLEAR     66  61  82 E10G20    29.84F
SHELDON *      PTCLDY    64  63  94 SE16G25   29.84F
SIOUX CITY     MOCLDY    71  64  78 E14       29.78R
SPENCER        CLOUDY    65  61  87 SE17      29.87F
STORM LAKE *   PTCLDY    64  63  94 E17G24    29.90R
$$

IAZ055>058-069>071-079>083-090>094-251200-
   SOUTHWEST IOWA

CITY           SKY/WX    TMP DP  RH WIND       PRES   REMARKS
ATLANTIC *     PTCLDY    70  61  73 E13G21    29.86R
AUDUBON *      CLEAR     70  63  78 E15G21    29.90R
CLARINDA *     CLEAR     70  61  73 S5        29.84S
COUNCIL BLFS *   N/A     73  68  83 SE8       29.79R
CRESTON *      CLEAR     66  59  77 E12       29.91R
HARLAN  *      CLEAR     68  63  83 E12       29.88R
LAMONI         CLOUDY    66  56  70 SE8G18    29.90S
RED OAK *      CLOUDY    70  61  73 VRB5      29.83R
SHENANDOAH *   CLEAR     70  61  73 SE13      29.81S
$$

IAZ047>049-059>061-072>074-084-251200-
   CENTRAL IOWA

CITY           SKY/WX    TMP DP  RH WIND       PRES   REMARKS
AMES           CLOUDY    63  61  93 SE15G24   29.99S
ANKENY *       CLOUDY    64  61  88 E13G20    29.99R
CHARITON *     CLOUDY    66  55  68 E16       29.97R
DES MOINES     CLOUDY    66  59  78 E12       29.98R
GRINNELL*      HVY RAIN  61  59  94 E5        30.08R
KNOXVILLE *    CLOUDY    64  57  77 E12G24    29.99R
MARSHALLTOWN   LGT RAIN  63  62  97 S15G23    30.00F
PELLA *        LGT RAIN  63  61  94 E8        30.03R
PERRY *        CLOUDY    64  61  88 E20G30    29.94S
$$

IAZ004>006-015-016-023>025-035-036-251200-
   NORTH CENTRAL IOWA

CITY           SKY/WX    TMP DP  RH WIND       PRES   REMARKS
ALGONA *       CLOUDY    64  63  94 SE6       29.90F
CLARION *      CLOUDY    64  64 100 S15G23    29.89F
ESTHERVILLE    CLOUDY    65  62  90 S17G23    29.86F
FORT DODGE *   CLOUDY    64  59  82 SE18G30   29.90S
MASON CITY     LGT RAIN  65  63  93 E6        29.93R
FOREST CITY *  DRIZZLE   64  64 100 SE10      29.90F
IOWA FALLS *   LGT RAIN  63  61  94 SE16G24   29.95F
$$

IAZ007>011-017>019-026>030-037>042-050>054-066-251200-
   NORTHEAST IOWA

CITY           SKY/WX    TMP DP  RH WIND       PRES   REMARKS
CEDAR RAPIDS   TSTM      62  59  90 E7        30.05R FOG
CHARLES CITY * MOCLDY    64  61  88 SE7G13    29.96R
CLINTON *      CLOUDY    61  57  88 E6        30.11R
DECORAH *      CLOUDY    63  59  88 S7G13     29.99R
DUBUQUE        LGT RAIN  60  57  89 S12G18    30.03F
MONTICELLO *   CLOUDY    63  59  88 S9        30.05F
OELWEIN *      LGT RAIN  61  61 100 S28G41    29.91F
WATERLOO       RAIN      62  61  96 S18G25    29.92F
$$

IAZ064-065-067-068-078-251200-
   EAST CENTRAL IOWA

CITY           SKY/WX    TMP DP  RH WIND       PRES   REMARKS
DAVENPORT      LGT RAIN  64  55  72 CALM      30.09R
IOWA CITY      LGT RAIN  61  60  97 E3        30.08R
MT. PLEASANT * RAIN      63  59  88 CALM      30.07R
MUSCATINE *    MOCLDY    63  59  88 NE6       30.06R
QUAD CITIES    CLOUDY    63  55  75 CALM      30.07R
$$

IAZ062-063-075>077-085>089-095>099-251200-
   SOUTHEAST IOWA

CITY           SKY/WX    TMP DP  RH WIND       PRES   REMARKS
BURLINGTON     CLOUDY    65  56  72 S7        30.05R
FAIRFIELD *    HVY RAIN  63  59  88 CALM      30.09R
FORT MADISON * LGT RAIN  64  57  77 CALM      30.07R
KEOKUK *       PTCLDY    66  55  68 CALM      30.04R
OSKALOOSA *    LGT RAIN  61  59  94 SE16G24   30.00F
CENTERVILLE *  MOCLDY    63  57  82 E10       29.99R
OTTUMWA        RAIN      61  58  90 SE16      30.02F FOG
WASHINGTON *   LGT RAIN  63  61  94 CALM      30.06R
$$

ABBREVIATIONS USED IN REMARKS
   TC - TEMPERATURES IN CELSIUS
  WCI - WIND CHILL INDEX
   HX - HEAT INDEX
  VSB - VISIBILITY
$$



USA.gov is the U.S. government's official web portal to all federal, state and local government web resources and services.